Flag for Spain Weather past 2 weeks in Valencia, Spain

Now
70 °F

Broken clouds.


Feels Like: 70 °F
Forecast: 64 / 79 °F
Wind: 6 mph from North

Location: Valencia / Aeropuerto

Current Time: Oct 1, 2014 at 11:02:45 AM

Latest Report: Oct 1, 2014 at 10:30 AM


Visibility: N/A

Pressure: 30.27 "Hg

Humidity: 88%

Dew point: 66 °F

Location of ValenciaLocation

Historic Weather in Valencia — Graph

°F

Valencia temperature yesterday

Maximum temperature yesterday: 79 °F (at 2:00 PM)
Minimum temperature yesterday: 66 °F (at 6:30 AM)
Average temperature yesterday: 72 °F

Past Weeks' High & Low Weather Summary

 TemperatureHumidityPressure
High91 °F (Sep 17, 4:00 PM)100% (Sep 22, 9:00 AM)30.30 "Hg (Sep 22, 9:00 AM)
Low63 °F (Sep 23, 8:00 AM)21% (Sep 19, 4:00 PM)29.71 "Hg (Sep 16, 7:00 PM)
Average74 °F72%30.02 "Hg
* Reported Sep 16 10:00 AM — Oct 1 10:00 AM, Valencia, Weather by CustomWeather, © 2014

Note: Actual official high and low records may vary slightly from our data, if they occured in-between our weather recording intervals... More about our weather records

Advertising

Valencia weather history for previous 24 hours

 ConditionsComfort  
Time TempWeatherWind HumidityBarometerVisibility
10:00 AM
Oct 1
68 °FBroken clouds.5 mph94%30.30 "HgN/A
9:30 AM68 °FDrizzle. Partly sunny.5 mph94%30.27 "HgN/A
9:00 AM68 °FPartly sunny.5 mph88%30.27 "HgN/A
8:30 AM66 °FPassing clouds.1 mph94%30.27 "HgN/A
8:00 AM66 °FPassing clouds.2 mph94%30.27 "HgN/A
7:30 AM66 °FPassing clouds.2 mph94%30.24 "HgN/A
7:00 AM66 °FPassing clouds.5 mph94%30.24 "HgN/A
6:30 AM66 °FPassing clouds.6 mph94%30.24 "HgN/A
6:00 AM66 °FPassing clouds.3 mph94%30.24 "HgN/A
5:30 AM66 °FPassing clouds.6 mph94%30.27 "HgN/A
5:00 AM66 °FPassing clouds.5 mph94%30.24 "HgN/A
4:30 AM66 °FPassing clouds.6 mph94%30.27 "HgN/A
4:00 AM68 °FPassing clouds.6 mph88%30.27 "HgN/A
3:30 AM68 °FPassing clouds.3 mph94%30.27 "HgN/A
3:00 AM68 °FPassing clouds.3 mph94%30.27 "HgN/A
2:30 AM68 °FPassing clouds.2 mph94%30.27 "HgN/A
2:00 AM68 °FPassing clouds.2 mph94%30.27 "HgN/A
1:30 AM70 °FPassing clouds.1 mph88%30.27 "HgN/A
1:00 AM70 °FPassing clouds.No wind88%30.27 "HgN/A
12:30 AM72 °FPassing clouds.No wind83%30.27 "HgN/A
12:00 AM70 °FPassing clouds.2 mph88%30.27 "HgN/A
11:30 PM
Sep 30
72 °FPassing clouds.5 mph83%30.24 "HgN/A
10:30 PM72 °FPassing clouds.6 mph83%30.27 "HgN/A
10:00 PM72 °FPassing clouds.3 mph83%30.27 "HgN/A
9:30 PM72 °FPassing clouds.3 mph88%30.27 "HgN/A
9:00 PM73 °FPassing clouds.7 mph83%30.27 "HgN/A
8:30 PM73 °FPassing clouds.7 mph78%30.24 "HgN/A
8:00 PM73 °FPassing clouds.8 mph83%30.24 "HgN/A
7:30 PM73 °FScattered clouds.9 mph83%30.24 "HgN/A
7:00 PM73 °FPartly sunny.9 mph83%30.24 "HgN/A
6:30 PM75 °FScattered clouds.10 mph74%30.21 "HgN/A
6:00 PM75 °FPassing clouds.10 mph74%30.21 "HgN/A
5:30 PM75 °FScattered clouds.12 mph74%30.21 "HgN/A
5:00 PM77 °FScattered clouds.9 mph69%30.21 "HgN/A
4:30 PM77 °FPassing clouds.10 mph65%30.21 "HgN/A
4:00 PM77 °FPassing clouds.7 mph65%30.21 "HgN/A
3:30 PM77 °FScattered clouds.9 mph65%30.21 "HgN/A
3:00 PM77 °FPassing clouds.8 mph65%30.21 "HgN/A
2:30 PM79 °FPassing clouds.5 mph58%30.21 "HgN/A
2:00 PM79 °FPassing clouds.6 mph61%30.21 "HgN/A
1:30 PM77 °FScattered clouds.5 mph69%30.24 "HgN/A
1:00 PM77 °FScattered clouds.3 mph74%30.24 "HgN/A
12:30 PM77 °FPassing clouds.5 mph69%30.24 "HgN/A
12:00 PM75 °FPassing clouds.5 mph74%30.24 "HgN/A
11:30 AM75 °FPassing clouds.No wind74%30.24 "HgN/A
11:00 AM73 °FPassing clouds.No wind74%30.24 "HgN/A
Weather by CustomWeather, © 2014

See weather overviewHow to use our weather pages